Regional Weather Roundup
Issued by NWS Glasgow, MT

Home | Current Version | Previous Version | Text Only | Print | Product List | Glossary On
Versions: 1 2 3 4 5 6 7 8 9 10 11 12 13 14 15 16 17 18 19 20 21 22 23 24 25 26 27 28 29 30 31 32 33 34 35 36 37 38 39 40 41 42 43 44 45 46 47 48 49 50
000
ASUS45 KGGW 260815
RWRGGW
HOURLY REGIONAL WEATHER ROUNDUP FOR NORTHEAST MONTANA
NATIONAL WEATHER SERVICE GLASGOW MONTANA
200 AM MDT WED JUL 26 2017

NOTE: "FAIR" INDICATES FEW OR NO CLOUDS BELOW 12,000 FEET WITH NO
SIGNIFICANT WEATHER AND/OR OBSTRUCTIONS TO VISISBILITY.

NORTHEAST MONTANA


CITY           SKY/WX    TMP DP  RH WIND       PRES   REMARKS
GLASGOW        CLEAR     65  42  43 NE13      30.09R
PLENTYWOOD       N/A     61  47  59 N7          N/A
WOLF POINT     CLEAR     61  42  49 E5        30.10R
JORDAN           N/A     56  39  53 CALM      30.09S
WINNETT          N/A     55  40  56 CALM        N/A
SIDNEY         CLEAR     63  43  48 N6        30.10R
GLENDIVE       CLEAR     66  44  45 NE8       30.11R
MALTA            N/A     60  44  55 E2          N/A

FORT PECK REPORTS


CITY           SKY/WX    TMP DP  RH WIND       PRES   REMARKS
FORT PECK        N/A     68  45  43 NE12        N/A
THE PINES        N/A     68  44  42 NE5         N/A

SOUTHEAST MONTANA


CITY           SKY/WX    TMP DP  RH WIND       PRES   REMARKS
BILLINGS       CLEAR     64  44  48 CALM      30.13S
MILES CITY     CLEAR     67  40  37 NE6       30.09R
BAKER          CLOUDY    63  43  48 E3        30.11S
LIVINGSTON     CLEAR     51  43  74 SW5       30.18R

CENTRAL MONTANA


CITY           SKY/WX    TMP DP  RH WIND       PRES   REMARKS
HAVRE          CLEAR     63  42  46 NE8       30.08S
LEWISTOWN      PTCLDY    57  42  57 E6        30.13S
GREAT FALLS    PTCLDY    62  38  40 E5        30.10R
CUT BANK       CLEAR     59  39  47 S3        30.15R
HELENA         MOCLDY    69  41  36 W7        30.11R
BUTTE          CLOUDY    61  48  62 NW5       30.20R
BOZEMAN        PTCLDY    57  49  74 CALM      30.13R

WESTERN MONTANA


CITY           SKY/WX    TMP DP  RH WIND       PRES   REMARKS
MISSOULA       CLEAR     62  36  37 CALM      30.06R
KALISPELL      NOT AVBL

NORTH DAKOTA


CITY           SKY/WX    TMP DP  RH WIND       PRES   REMARKS
WILLISTON      CLEAR     59  47  64 CALM      30.11R
DICKINSON      PTCLDY    65  48  54 E5        30.10R
MINOT          CLEAR     61  54  77 SW6       30.07R
BISMARCK       CLOUDY    68  56  65 NE8       30.07S

SOUTHERN SASKATCHEWAN


CITY           SKY/WX    TMP DP  RH WIND       PRES   REMARKS
REGINA         CLEAR     54  48  82 S3        30.11S
ESTEVAN        CLEAR     52  52 100 NE6       30.09S
SWIFT CURRENT  CLEAR     50  45  81 SE8       30.11S




USA.gov is the U.S. government's official web portal to all federal, state and local government web resources and services.